UAL1158 KLAX-PHNL

Flight info

Callsign UAL1158
Flight time 5h 27m
Altitude 36000
Route SUMMR2 DINTY DUETS R576 DENNS MAGGI3
Aircraft B772/H-SDE2E3FGHIJ5LORVWXY/LB1D1

Departure

Time 2026-04-24 15:13
Airport Los Angeles International Airport (KLAX)

Arrival

Time 2026-04-24 20:40
Airport Daniel K. Inouye International Airport (PHNL)
Time Latitude Longitude Altitude Speed Heading
2026-04-24 14:53 33.94102 -118.39888 97 ft 0 kts 307°
2026-04-24 15:03 33.94098 -118.39881 97 ft 4 kts 304°
2026-04-24 15:03 33.94083 -118.39842 92 ft 4 kts 289°
2026-04-24 15:03 33.94078 -118.39826 90 ft 4 kts 308°
2026-04-24 15:03 33.94100 -118.39829 97 ft 4 kts
2026-04-24 15:04 33.94130 -118.39831 98 ft 0 kts 173°
2026-04-24 15:07 33.94129 -118.39831 98 ft 1 kts 173°
2026-04-24 15:07 33.94104 -118.39828 97 ft 6 kts 173°
2026-04-24 15:07 33.94046 -118.39823 98 ft 11 kts 178°
2026-04-24 15:07 33.93970 -118.39813 100 ft 11 kts 170°
2026-04-24 15:08 33.93917 -118.39767 100 ft 9 kts 120°
2026-04-24 15:08 33.93910 -118.39704 100 ft 8 kts 86°
2026-04-24 15:08 33.93923 -118.39586 99 ft 16 kts 82°
2026-04-24 15:08 33.93937 -118.39461 101 ft 15 kts 82°
2026-04-24 15:09 33.93949 -118.39343 98 ft 14 kts 83°
2026-04-24 15:09 33.93959 -118.39232 98 ft 13 kts 83°
2026-04-24 15:09 33.93969 -118.39132 99 ft 11 kts 83°
2026-04-24 15:09 33.93977 -118.39047 98 ft 10 kts 83°
2026-04-24 15:10 33.93986 -118.38953 100 ft 15 kts 83°
2026-04-24 15:10 33.94001 -118.38808 100 ft 20 kts 83°
2026-04-24 15:10 33.94019 -118.38631 100 ft 21 kts 83°
2026-04-24 15:10 33.94035 -118.38466 102 ft 19 kts 83°
2026-04-24 15:11 33.94052 -118.38307 103 ft 18 kts 83°
2026-04-24 15:11 33.94067 -118.38159 98 ft 18 kts 83°
2026-04-24 15:11 33.94061 -118.38023 99 ft 15 kts 131°
2026-04-24 15:11 33.93986 -118.38031 100 ft 11 kts 243°
2026-04-24 15:12 33.93979 -118.38065 99 ft 3 kts 261°
2026-04-24 15:12 33.93872 -118.39119 99 ft 137 kts 263°
2026-04-24 15:12 33.93738 -118.40502 191 ft 190 kts 264°
2026-04-24 15:13 33.93572 -118.42202 703 ft 211 kts 263°
2026-04-24 15:13 33.93396 -118.43941 1712 ft 204 kts 261°
2026-04-24 15:13 33.93233 -118.45655 2453 ft 210 kts 262°
2026-04-24 15:13 33.93085 -118.47468 2868 ft 228 kts 263°
2026-04-24 15:14 33.92980 -118.48762 3082 ft 243 kts 262°
2026-04-24 15:14 33.92789 -118.50855 3575 ft 256 kts 263°
2026-04-24 15:14 33.92597 -118.53014 4292 ft 261 kts 264°
2026-04-24 15:14 33.92352 -118.55906 5371 ft 263 kts 264°
2026-04-24 15:15 33.92228 -118.57391 5872 ft 265 kts 264°
2026-04-24 15:15 33.92043 -118.59613 6614 ft 268 kts 264°
2026-04-24 15:15 33.91857 -118.61848 7335 ft 269 kts 264°
2026-04-24 15:15 33.91722 -118.64066 8023 ft 270 kts 268°
2026-04-24 15:16 33.91709 -118.66333 8718 ft 271 kts 270°
2026-04-24 15:16 33.91720 -118.68621 9385 ft 274 kts 270°
2026-04-24 15:16 33.91729 -118.70931 10033 ft 276 kts 270°
2026-04-24 15:16 33.91730 -118.73276 10395 ft 289 kts 269°
2026-04-24 15:17 33.91727 -118.75781 10544 ft 309 kts 269°
2026-04-24 15:17 33.91717 -118.78469 10713 ft 331 kts 269°
2026-04-24 15:17 33.91705 -118.81296 11209 ft 343 kts 269°
2026-04-24 15:17 33.91697 -118.84207 11961 ft 349 kts 270°
2026-04-24 15:18 33.91769 -118.87101 12905 ft 351 kts 271°
2026-04-24 15:18 33.91877 -118.90046 13902 ft 353 kts 271°
2026-04-24 15:18 33.91981 -118.93009 14730 ft 356 kts 270°
2026-04-24 15:18 33.92074 -118.95999 15548 ft 359 kts 270°
2026-04-24 15:19 33.92163 -118.99004 16400 ft 358 kts 271°
2026-04-24 15:19 33.92561 -119.01979 16983 ft 367 kts 285°
2026-04-24 15:19 33.93720 -119.04749 17633 ft 375 kts 298°
2026-04-24 15:19 33.95149 -119.07401 18302 ft 379 kts 298°
2026-04-24 15:20 33.96573 -119.10085 18957 ft 381 kts 297°
2026-04-24 15:20 33.97984 -119.12790 19664 ft 381 kts 297°
2026-04-24 15:20 33.99374 -119.15480 20327 ft 383 kts 297°
2026-04-24 15:20 34.00833 -119.18166 20865 ft 387 kts 302°
2026-04-24 15:21 34.02827 -119.20429 21262 ft 401 kts 319°
2026-04-24 15:21 34.05173 -119.22323 21538 ft 410 kts 319°
2026-04-24 15:21 34.07531 -119.24281 22106 ft 412 kts 318°
2026-04-24 15:21 34.09872 -119.26267 22848 ft 410 kts 317°
2026-04-24 15:22 34.12204 -119.28263 23527 ft 411 kts 317°
2026-04-24 15:22 34.14546 -119.30279 23986 ft 415 kts 317°
2026-04-24 15:22 34.16905 -119.32314 24413 ft 419 kts 316°
2026-04-24 15:23 34.21653 -119.36413 25339 ft 425 kts 316°
2026-04-24 15:23 34.26515 -119.40614 26123 ft 433 kts 316°
2026-04-24 15:23 34.28974 -119.42738 26576 ft 435 kts 316°
2026-04-24 15:24 34.36425 -119.49209 27836 ft 437 kts 314°
2026-04-24 15:25 34.39793 -119.55007 28411 ft 417 kts 283°
2026-04-24 15:25 34.40677 -119.61768 29294 ft 407 kts 264°
2026-04-24 15:26 34.39858 -119.72151 30145 ft 416 kts 262°
2026-04-24 15:27 34.39057 -119.82606 31126 ft 417 kts 263°
2026-04-24 15:27 34.38306 -119.93054 32264 ft 414 kts 263°
2026-04-24 15:28 34.37302 -120.06938 33621 ft 413 kts 263°
2026-04-24 15:29 34.36797 -120.13829 34251 ft 413 kts 263°
2026-04-24 15:30 34.36028 -120.24217 35089 ft 412 kts 263°
2026-04-24 15:31 34.34991 -120.38059 35953 ft 416 kts 263°
2026-04-24 15:32 34.32485 -120.51489 36038 ft 408 kts 245°
2026-04-24 15:33 34.27465 -120.63984 36032 ft 417 kts 246°
2026-04-24 15:34 34.21213 -120.79780 36023 ft 417 kts 246°
2026-04-24 15:35 34.14958 -120.95475 36029 ft 412 kts 246°
2026-04-24 15:36 34.12463 -121.01713 36034 ft 411 kts 246°
2026-04-24 15:36 34.08752 -121.10976 36037 ft 409 kts 246°
2026-04-24 15:37 34.06269 -121.17159 36031 ft 409 kts 246°
2026-04-24 15:37 34.03785 -121.23332 36036 ft 409 kts 246°
2026-04-24 15:38 34.01298 -121.29500 36037 ft 409 kts 246°
2026-04-24 15:38 33.98809 -121.35665 36040 ft 409 kts 246°
2026-04-24 15:39 33.96318 -121.41821 36050 ft 410 kts 246°
2026-04-24 15:39 33.93811 -121.48007 36051 ft 411 kts 246°
2026-04-24 15:40 33.91296 -121.54201 36057 ft 412 kts 246°
2026-04-24 15:40 33.88790 -121.60360 36055 ft 412 kts 246°
2026-04-24 15:41 33.86265 -121.66555 36061 ft 412 kts 246°
2026-04-24 15:41 33.83738 -121.72745 36061 ft 412 kts 246°
2026-04-24 15:42 33.81206 -121.78936 36063 ft 412 kts 246°
2026-04-24 15:42 33.78674 -121.85115 36061 ft 412 kts 246°
2026-04-24 15:43 33.76137 -121.91294 36065 ft 412 kts 246°
2026-04-24 15:43 33.73599 -121.97466 36071 ft 412 kts 246°
2026-04-24 15:44 33.71060 -122.03629 36071 ft 411 kts 246°
2026-04-24 15:44 33.68533 -122.09752 36072 ft 411 kts 246°
2026-04-24 15:45 33.65989 -122.15908 36050 ft 411 kts 245°
2026-04-24 15:45 33.63450 -122.22038 36072 ft 410 kts 245°
2026-04-24 15:46 33.60918 -122.28137 36086 ft 409 kts 245°
2026-04-24 15:46 33.58373 -122.34262 36094 ft 409 kts 245°
2026-04-24 15:47 33.55828 -122.40375 36082 ft 409 kts 245°
2026-04-24 15:47 33.53283 -122.46478 36082 ft 409 kts 245°
2026-04-24 15:48 33.50754 -122.52534 36086 ft 409 kts 245°
2026-04-24 15:48 33.48246 -122.58652 36085 ft 408 kts 249°
2026-04-24 15:49 33.46761 -122.65186 36081 ft 406 kts 257°
2026-04-24 15:49 33.45482 -122.71799 36095 ft 407 kts 256°
2026-04-24 15:50 33.44167 -122.78399 36103 ft 407 kts 256°
2026-04-24 15:50 33.42824 -122.84955 36102 ft 408 kts 256°
2026-04-24 15:51 33.41458 -122.91550 36100 ft 408 kts 256°
2026-04-24 15:51 33.40082 -122.98157 36104 ft 408 kts 256°
2026-04-24 15:52 33.38695 -123.04753 36105 ft 408 kts 255°
2026-04-24 15:52 33.37323 -123.11299 36102 ft 408 kts 256°
2026-04-24 15:53 33.35940 -123.17892 36098 ft 408 kts 255°
2026-04-24 15:53 33.34554 -123.24478 36107 ft 409 kts 256°
2026-04-24 15:54 33.33161 -123.31075 36107 ft 409 kts 256°
2026-04-24 15:54 33.31771 -123.37640 36112 ft 409 kts 256°
2026-04-24 15:55 33.30371 -123.44235 36119 ft 409 kts 256°
2026-04-24 15:55 33.28968 -123.50826 36114 ft 409 kts 256°
2026-04-24 15:56 33.27563 -123.57416 36114 ft 409 kts 256°
2026-04-24 15:56 33.26152 -123.64009 36115 ft 409 kts 256°
2026-04-24 15:57 33.24737 -123.70597 36110 ft 409 kts 256°
2026-04-24 15:57 33.23328 -123.77144 36110 ft 409 kts 255°
2026-04-24 15:58 33.21909 -123.83724 36112 ft 409 kts 255°
2026-04-24 15:58 33.20486 -123.90307 36119 ft 409 kts 255°
2026-04-24 15:59 33.19058 -123.96885 36111 ft 409 kts 255°
2026-04-24 15:59 33.17633 -124.03433 36132 ft 409 kts 255°
2026-04-24 16:00 33.16196 -124.10016 36130 ft 409 kts 255°
2026-04-24 16:00 33.14755 -124.16605 36131 ft 410 kts 255°
2026-04-24 16:01 33.13320 -124.23157 36113 ft 410 kts 255°
2026-04-24 16:01 33.11871 -124.29746 36132 ft 410 kts 255°
2026-04-24 16:02 33.10421 -124.36325 36126 ft 410 kts 255°
2026-04-24 16:02 33.09213 -124.41796 36130 ft 410 kts 255°
2026-04-24 16:03 33.07756 -124.48380 36124 ft 411 kts 255°
2026-04-24 16:03 33.06288 -124.54969 36135 ft 411 kts 255°
2026-04-24 16:04 33.04821 -124.61501 36137 ft 411 kts 255°
2026-04-24 16:04 33.03340 -124.68090 36141 ft 411 kts 255°
2026-04-24 16:05 33.01117 -124.77969 36137 ft 411 kts 255°
2026-04-24 16:06 32.98892 -124.87819 36139 ft 412 kts 255°
2026-04-24 16:07 32.96653 -124.97707 36142 ft 412 kts 255°
2026-04-24 16:07 32.94405 -125.07589 36142 ft 412 kts 255°
2026-04-24 16:08 32.92153 -125.17446 36144 ft 413 kts 255°
2026-04-24 16:09 32.89879 -125.27361 36137 ft 413 kts 255°
2026-04-24 16:09 32.88358 -125.33965 36146 ft 414 kts 255°
2026-04-24 16:11 32.84549 -125.50446 36144 ft 414 kts 255°
2026-04-24 16:11 32.83016 -125.57047 36154 ft 414 kts 255°
2026-04-24 16:12 32.80709 -125.66949 36155 ft 414 kts 254°
2026-04-24 16:13 32.78391 -125.76850 36151 ft 414 kts 254°
2026-04-24 16:14 32.75300 -125.90010 36160 ft 414 kts 254°
2026-04-24 16:14 32.72966 -125.99904 36160 ft 415 kts 254°
2026-04-24 16:15 32.70633 -126.09758 36160 ft 415 kts 254°
2026-04-24 16:16 32.68279 -126.19652 36158 ft 415 kts 254°
2026-04-24 16:17 32.64343 -126.36113 36165 ft 414 kts 254°
2026-04-24 16:18 32.61196 -126.49206 36161 ft 414 kts 254°
2026-04-24 16:19 32.58815 -126.59072 36165 ft 414 kts 254°
2026-04-24 16:20 32.56435 -126.68890 36164 ft 415 kts 254°
2026-04-24 16:20 32.54036 -126.78749 36161 ft 415 kts 254°
2026-04-24 16:21 32.51626 -126.88611 36168 ft 416 kts 254°
2026-04-24 16:22 32.50012 -126.95198 36170 ft 416 kts 254°
2026-04-24 16:22 32.47587 -127.05067 36164 ft 416 kts 254°
2026-04-24 16:23 32.45963 -127.11652 36167 ft 416 kts 253°
2026-04-24 16:24 32.43530 -127.21493 36173 ft 416 kts 253°
2026-04-24 16:24 32.41900 -127.28071 36163 ft 417 kts 253°
2026-04-24 16:25 32.40264 -127.34654 36173 ft 417 kts 253°
2026-04-24 16:25 32.38623 -127.41239 36176 ft 417 kts 253°
2026-04-24 16:26 32.36167 -127.51064 36178 ft 417 kts 253°
2026-04-24 16:27 32.33694 -127.60925 36177 ft 417 kts 253°
2026-04-24 16:27 32.32038 -127.67506 36177 ft 417 kts 253°
2026-04-24 16:28 32.30389 -127.74041 36175 ft 417 kts 253°
2026-04-24 16:28 32.27890 -127.83915 36176 ft 417 kts 253°
2026-04-24 16:29 32.26231 -127.90454 36191 ft 418 kts 253°
2026-04-24 16:30 32.22879 -128.03618 36185 ft 418 kts 253°
2026-04-24 16:30 32.21200 -128.10188 36181 ft 417 kts 253°
2026-04-24 16:31 32.19519 -128.16749 36182 ft 417 kts 253°
2026-04-24 16:31 32.17844 -128.23267 36187 ft 417 kts 253°
2026-04-24 16:32 32.16156 -128.29820 36180 ft 417 kts 253°
2026-04-24 16:32 32.14465 -128.36369 36183 ft 417 kts 253°
2026-04-24 16:33 32.12772 -128.42915 36183 ft 417 kts 253°
2026-04-24 16:33 32.11076 -128.49459 36183 ft 417 kts 253°
2026-04-24 16:34 32.09373 -128.56009 36181 ft 417 kts 253°
2026-04-24 16:34 32.07679 -128.62512 36180 ft 417 kts 253°
2026-04-24 16:35 32.05972 -128.69052 36176 ft 417 kts 252°
2026-04-24 16:35 32.04263 -128.75584 36190 ft 416 kts 252°
2026-04-24 16:36 32.02553 -128.82100 36176 ft 416 kts 252°
2026-04-24 16:36 32.00844 -128.88608 36187 ft 415 kts 252°
2026-04-24 16:37 31.99140 -128.95074 36181 ft 415 kts 252°
2026-04-24 16:37 31.97426 -129.01563 36180 ft 415 kts 252°
2026-04-24 16:38 31.95709 -129.08058 36180 ft 414 kts 252°
2026-04-24 16:38 31.93989 -129.14545 36177 ft 414 kts 252°
2026-04-24 16:39 31.92283 -129.20972 36187 ft 414 kts 252°
2026-04-24 16:39 31.90557 -129.27449 36181 ft 414 kts 252°
2026-04-24 16:40 31.88825 -129.33924 36191 ft 414 kts 252°
2026-04-24 16:40 31.87092 -129.40389 36193 ft 414 kts 252°
2026-04-24 16:41 31.85350 -129.46862 36192 ft 414 kts 252°
2026-04-24 16:41 31.83610 -129.53328 36190 ft 415 kts 252°
2026-04-24 16:42 31.81865 -129.59799 36191 ft 415 kts 252°
2026-04-24 16:42 31.80130 -129.66218 36181 ft 415 kts 252°
2026-04-24 16:43 31.78379 -129.72685 36186 ft 415 kts 252°
2026-04-24 16:43 31.76626 -129.79144 36194 ft 415 kts 252°
2026-04-24 16:44 31.74869 -129.85609 36196 ft 415 kts 252°
2026-04-24 16:44 31.73111 -129.92071 36194 ft 415 kts 251°
2026-04-24 16:45 31.71348 -129.98524 36192 ft 415 kts 251°
2026-04-24 16:45 31.69591 -130.04926 36212 ft 415 kts 251°
2026-04-24 16:46 31.67818 -130.11380 36195 ft 415 kts 251°
2026-04-24 16:46 31.66043 -130.17832 36197 ft 415 kts 251°
2026-04-24 16:47 31.64268 -130.24272 36194 ft 415 kts 251°
2026-04-24 16:47 31.62489 -130.30711 36193 ft 415 kts 251°
2026-04-24 16:48 31.60706 -130.37150 36197 ft 415 kts 251°
2026-04-24 16:48 31.58921 -130.43585 36196 ft 415 kts 251°
2026-04-24 16:49 31.57142 -130.49979 36196 ft 415 kts 251°
2026-04-24 16:49 31.55348 -130.56420 36200 ft 415 kts 251°
2026-04-24 16:50 31.53552 -130.62853 36202 ft 415 kts 251°
2026-04-24 16:50 31.51764 -130.69241 36195 ft 414 kts 251°
2026-04-24 16:51 31.49962 -130.75673 36193 ft 414 kts 251°
2026-04-24 16:51 31.48464 -130.81008 36194 ft 414 kts 251°
2026-04-24 16:52 31.46362 -130.88469 36202 ft 414 kts 251°
2026-04-24 16:52 31.44843 -130.93843 36195 ft 414 kts 251°
2026-04-24 16:53 31.43044 -131.00201 36202 ft 414 kts 251°
2026-04-24 16:53 31.41230 -131.06604 36198 ft 414 kts 251°
2026-04-24 16:54 31.39414 -131.13000 36199 ft 414 kts 251°
2026-04-24 16:54 31.37593 -131.19398 36196 ft 413 kts 251°
2026-04-24 16:55 31.35779 -131.25742 36205 ft 413 kts 251°
2026-04-24 16:55 31.33954 -131.32124 36199 ft 413 kts 251°
2026-04-24 16:56 31.32129 -131.38502 36201 ft 413 kts 251°
2026-04-24 16:56 31.30302 -131.44874 36200 ft 413 kts 251°
2026-04-24 16:57 31.28483 -131.51199 36205 ft 412 kts 251°
2026-04-24 16:57 31.26649 -131.57558 36199 ft 412 kts 251°
2026-04-24 16:58 31.24815 -131.63903 36199 ft 412 kts 251°
2026-04-24 16:58 31.22980 -131.70243 36197 ft 411 kts 251°
2026-04-24 16:59 31.21145 -131.76571 36199 ft 411 kts 251°
2026-04-24 17:00 31.18395 -131.86025 36201 ft 411 kts 250°
2026-04-24 17:00 31.15631 -131.95500 36202 ft 410 kts 250°
2026-04-24 17:01 31.12874 -132.04922 36203 ft 410 kts 250°
2026-04-24 17:02 31.10095 -132.14393 36209 ft 411 kts 250°
2026-04-24 17:02 31.08235 -132.20702 36203 ft 411 kts 250°
2026-04-24 17:03 31.05445 -132.30145 36201 ft 412 kts 250°
2026-04-24 17:04 31.03574 -132.36463 36201 ft 412 kts 250°
2026-04-24 17:04 31.00760 -132.45947 36204 ft 412 kts 250°
2026-04-24 17:05 30.98879 -132.52271 36203 ft 413 kts 250°
2026-04-24 17:06 30.96055 -132.61739 36203 ft 413 kts 250°
2026-04-24 17:06 30.93222 -132.71209 36205 ft 413 kts 250°
2026-04-24 17:07 30.91337 -132.77497 36204 ft 413 kts 250°
2026-04-24 17:08 30.87537 -132.90128 36205 ft 413 kts 250°
2026-04-24 17:08 30.85644 -132.96403 36204 ft 413 kts 250°
2026-04-24 17:09 30.81828 -133.09013 36204 ft 413 kts 250°
2026-04-24 17:10 30.78005 -133.21595 36204 ft 412 kts 250°
2026-04-24 17:12 30.70329 -133.46711 36202 ft 412 kts 249°
2026-04-24 18:54 25.79231 -146.65764 36117 ft 468 kts 247°
2026-04-24 18:55 25.74956 -146.75513 36119 ft 469 kts 247°
2026-04-24 18:56 25.72118 -146.81973 36115 ft 469 kts 247°
2026-04-24 18:56 25.69259 -146.88475 36113 ft 469 kts 247°
2026-04-24 18:57 25.66400 -146.94973 36109 ft 469 kts 247°
2026-04-24 18:57 25.63533 -147.01475 36118 ft 469 kts 247°
2026-04-24 18:58 25.60682 -147.07928 36117 ft 469 kts 247°
2026-04-24 18:58 25.57808 -147.14422 36111 ft 469 kts 247°
2026-04-24 18:59 25.54935 -147.20905 36116 ft 469 kts 247°
2026-04-24 18:59 25.52058 -147.27385 36117 ft 469 kts 247°
2026-04-24 19:00 25.49177 -147.33869 36110 ft 469 kts 247°
2026-04-24 19:00 25.46296 -147.40344 36114 ft 469 kts 247°
2026-04-24 19:01 25.43432 -147.46770 36121 ft 468 kts 247°
2026-04-24 19:01 25.40543 -147.53245 36117 ft 469 kts 247°
2026-04-24 19:02 25.38145 -147.58610 36117 ft 469 kts 247°
2026-04-24 19:02 25.34761 -147.66177 36110 ft 469 kts 247°
2026-04-24 19:03 25.31862 -147.72643 36109 ft 469 kts 246°
2026-04-24 19:03 25.28977 -147.79065 36118 ft 469 kts 246°
2026-04-24 19:04 25.26075 -147.85521 36113 ft 469 kts 246°
2026-04-24 19:04 25.23170 -147.91976 36114 ft 469 kts 246°
2026-04-24 19:05 25.20260 -147.98426 36115 ft 469 kts 246°
2026-04-24 19:05 25.17345 -148.04878 36118 ft 469 kts 246°
2026-04-24 19:06 25.14427 -148.11329 36109 ft 469 kts 246°
2026-04-24 19:06 25.11526 -148.17734 36115 ft 469 kts 246°
2026-04-24 19:07 25.08603 -148.24179 36109 ft 469 kts 246°
2026-04-24 19:07 25.06171 -148.29534 36115 ft 469 kts 246°
2026-04-24 19:08 25.02750 -148.37057 36114 ft 469 kts 246°
2026-04-24 19:08 24.99820 -148.43491 36114 ft 470 kts 246°
2026-04-24 19:09 24.96884 -148.49931 36103 ft 470 kts 246°
2026-04-24 19:09 24.93964 -148.56324 36114 ft 470 kts 246°
2026-04-24 19:10 24.91020 -148.62760 36117 ft 470 kts 246°
2026-04-24 19:10 24.88070 -148.69197 36118 ft 470 kts 246°
2026-04-24 19:11 24.85119 -148.75630 36114 ft 470 kts 246°
2026-04-24 19:11 24.82178 -148.82034 36114 ft 471 kts 246°
2026-04-24 19:12 24.79215 -148.88474 36115 ft 471 kts 246°
2026-04-24 19:12 24.76252 -148.94906 36114 ft 471 kts 246°
2026-04-24 19:13 24.73784 -149.00258 36110 ft 471 kts 246°
2026-04-24 19:13 24.70336 -149.07721 36111 ft 471 kts 246°
2026-04-24 19:14 24.67368 -149.14135 36112 ft 471 kts 246°
2026-04-24 19:14 24.64396 -149.20551 36116 ft 471 kts 246°
2026-04-24 19:15 24.61419 -149.26967 36109 ft 471 kts 246°
2026-04-24 19:15 24.58440 -149.33380 36115 ft 471 kts 246°
2026-04-24 19:16 24.53988 -149.42948 36111 ft 471 kts 245°
2026-04-24 19:16 24.51000 -149.49355 36114 ft 471 kts 245°
2026-04-24 19:17 24.47998 -149.55781 36115 ft 471 kts 245°
2026-04-24 19:17 24.45020 -149.62151 36108 ft 471 kts 245°
2026-04-24 19:18 24.42024 -149.68554 36114 ft 472 kts 245°
2026-04-24 19:18 24.39023 -149.74960 36104 ft 472 kts 245°
2026-04-24 19:19 24.36518 -149.80296 36117 ft 472 kts 245°
2026-04-24 19:19 24.33021 -149.87739 36117 ft 472 kts 245°
2026-04-24 19:20 24.30512 -149.93072 36117 ft 472 kts 245°
2026-04-24 19:20 24.27494 -149.99482 36117 ft 473 kts 245°
2026-04-24 19:21 24.24471 -150.05888 36103 ft 473 kts 245°
2026-04-24 19:21 24.21446 -150.12290 36117 ft 473 kts 245°
2026-04-24 19:22 24.18417 -150.18694 36110 ft 473 kts 245°
2026-04-24 19:22 24.15407 -150.25045 36112 ft 473 kts 245°
2026-04-24 19:23 24.12372 -150.31436 36111 ft 473 kts 245°
2026-04-24 19:23 24.09334 -150.37834 36113 ft 473 kts 245°
2026-04-24 19:24 24.06311 -150.44191 36113 ft 473 kts 245°
2026-04-24 19:24 24.03273 -150.50574 36111 ft 473 kts 245°
2026-04-24 19:25 24.00232 -150.56954 36115 ft 473 kts 245°
2026-04-24 19:25 23.97184 -150.63341 36114 ft 473 kts 245°
2026-04-24 19:26 23.94130 -150.69724 36115 ft 473 kts 245°
2026-04-24 19:26 23.91075 -150.76103 36109 ft 473 kts 245°
2026-04-24 19:27 23.88015 -150.82484 36117 ft 474 kts 245°
2026-04-24 19:27 23.84968 -150.88832 36114 ft 474 kts 244°
2026-04-24 19:28 23.81904 -150.95206 36114 ft 474 kts 244°
2026-04-24 19:28 23.78836 -151.01577 36114 ft 474 kts 244°
2026-04-24 19:29 23.74231 -151.11123 36117 ft 474 kts 244°
2026-04-24 19:30 23.71156 -151.17491 36116 ft 474 kts 244°
2026-04-24 19:30 23.68074 -151.23856 36118 ft 474 kts 244°
2026-04-24 19:31 23.65008 -151.30183 36113 ft 473 kts 244°
2026-04-24 19:31 23.61931 -151.36537 36110 ft 473 kts 244°
2026-04-24 19:32 23.58853 -151.42885 36113 ft 473 kts 244°
2026-04-24 19:32 23.55768 -151.49232 36119 ft 473 kts 244°
2026-04-24 19:33 23.52699 -151.55539 36117 ft 473 kts 244°
2026-04-24 19:33 23.49607 -151.61882 36118 ft 474 kts 244°
2026-04-24 19:34 23.46521 -151.68206 36111 ft 473 kts 244°
2026-04-24 19:34 23.43420 -151.74547 36120 ft 472 kts 244°
2026-04-24 19:35 23.40327 -151.80862 36116 ft 471 kts 244°
2026-04-24 19:35 23.37259 -151.87121 36117 ft 471 kts 244°
2026-04-24 19:36 23.34174 -151.93424 36118 ft 471 kts 244°
2026-04-24 19:36 23.31082 -151.99720 36117 ft 472 kts 244°
2026-04-24 19:37 23.27977 -152.06024 36120 ft 472 kts 244°
2026-04-24 19:37 23.24889 -152.12292 36113 ft 472 kts 243°
2026-04-24 19:38 23.21794 -152.18589 36124 ft 471 kts 244°
2026-04-24 19:38 23.18707 -152.24868 36128 ft 471 kts 244°
2026-04-24 19:39 23.15603 -152.31144 36118 ft 471 kts 244°
2026-04-24 19:39 23.12497 -152.37417 36126 ft 471 kts 243°
2026-04-24 19:40 23.09404 -152.43658 36119 ft 471 kts 243°
2026-04-24 19:40 23.06295 -152.49934 36120 ft 472 kts 243°
2026-04-24 19:41 23.03188 -152.56195 36114 ft 470 kts 243°
2026-04-24 19:41 23.00065 -152.62442 36117 ft 470 kts 243°
2026-04-24 19:42 22.96922 -152.68677 36118 ft 470 kts 243°
2026-04-24 19:42 22.93788 -152.74897 36125 ft 470 kts 243°
2026-04-24 19:43 22.90675 -152.81084 36131 ft 470 kts 243°
2026-04-24 19:43 22.87538 -152.87313 36127 ft 470 kts 243°
2026-04-24 19:44 22.84399 -152.93538 36116 ft 471 kts 243°
2026-04-24 19:44 22.81251 -152.99777 36124 ft 471 kts 243°
2026-04-24 19:45 22.78099 -153.06013 36128 ft 471 kts 243°
2026-04-24 19:45 22.74947 -153.12246 36130 ft 471 kts 243°
2026-04-24 19:46 22.71809 -153.18439 36128 ft 471 kts 243°
2026-04-24 19:46 22.68651 -153.24669 36127 ft 472 kts 243°
2026-04-24 19:47 22.65499 -153.30918 36131 ft 472 kts 243°
2026-04-24 19:47 22.62344 -153.37159 36125 ft 471 kts 243°
2026-04-24 19:48 22.59197 -153.43337 36129 ft 471 kts 243°
2026-04-24 19:48 22.54446 -153.52643 36129 ft 470 kts 243°
2026-04-24 19:49 22.48114 -153.65033 36128 ft 470 kts 243°
2026-04-24 19:50 22.41794 -153.77383 36119 ft 471 kts 243°
2026-04-24 19:51 22.37114 -153.86694 36119 ft 466 kts 249°
2026-04-24 19:52 22.36267 -153.93520 36140 ft 458 kts 274°
2026-04-24 19:52 22.36428 -153.96966 36134 ft 460 kts 273°
2026-04-24 19:52 22.36643 -154.03907 36135 ft 464 kts 272°
2026-04-24 19:53 22.36796 -154.10910 36133 ft 467 kts 271°
2026-04-24 19:54 22.36903 -154.16779 36133 ft 469 kts 271°
2026-04-24 19:54 22.37035 -154.23839 36131 ft 471 kts 271°
2026-04-24 19:55 22.37127 -154.28527 36130 ft 471 kts 271°
2026-04-24 19:55 22.37312 -154.37975 36128 ft 469 kts 271°
2026-04-24 19:56 22.37445 -154.45021 36131 ft 467 kts 271°
2026-04-24 19:56 22.37574 -154.51989 36136 ft 466 kts 271°
2026-04-24 19:57 22.37700 -154.58999 36134 ft 466 kts 271°
2026-04-24 19:57 22.37823 -154.66010 36137 ft 466 kts 271°
2026-04-24 19:58 22.37923 -154.71849 36137 ft 467 kts 271°
2026-04-24 19:58 22.38046 -154.79106 36139 ft 467 kts 271°
2026-04-24 19:59 22.38163 -154.86125 36139 ft 467 kts 271°
2026-04-24 19:59 22.38275 -154.93161 36139 ft 467 kts 271°
2026-04-24 20:00 22.38384 -155.00138 36136 ft 467 kts 271°
2026-04-24 20:00 22.38490 -155.07163 36142 ft 467 kts 271°
2026-04-24 20:01 22.38593 -155.14181 36144 ft 467 kts 271°
2026-04-24 20:01 22.38696 -155.21197 36142 ft 467 kts 271°
2026-04-24 20:02 22.38777 -155.27028 36141 ft 467 kts 271°
2026-04-24 20:02 22.38823 -155.30420 36141 ft 467 kts 271°
2026-04-24 20:03 22.38915 -155.37390 36138 ft 467 kts 271°
2026-04-24 20:03 22.39005 -155.44415 36142 ft 467 kts 271°
2026-04-24 20:04 22.39093 -155.51445 36144 ft 467 kts 271°
2026-04-24 20:04 22.39177 -155.58479 36144 ft 467 kts 271°
2026-04-24 20:05 22.39259 -155.65506 36144 ft 467 kts 271°
2026-04-24 20:05 22.39325 -155.71338 36145 ft 467 kts 271°
2026-04-24 20:06 22.39413 -155.79503 36143 ft 467 kts 271°
2026-04-24 20:06 22.39474 -155.85350 36145 ft 467 kts 271°
2026-04-24 20:07 22.39532 -155.91192 36144 ft 467 kts 271°
2026-04-24 20:07 22.39610 -155.99405 36144 ft 467 kts 271°
2026-04-24 20:08 22.39676 -156.06420 36144 ft 467 kts 271°
2026-04-24 20:08 22.39742 -156.13397 36144 ft 467 kts 271°
2026-04-24 20:09 22.39779 -156.20418 36139 ft 464 kts 268°
2026-04-24 20:09 22.39212 -156.23848 36144 ft 467 kts 252°
2026-04-24 20:09 22.37837 -156.27031 36147 ft 470 kts 238°
2026-04-24 20:10 22.33583 -156.32409 36149 ft 472 kts 231°
2026-04-24 20:10 22.29336 -156.37850 36149 ft 474 kts 232°
2026-04-24 20:11 22.25143 -156.43327 36147 ft 477 kts 232°
2026-04-24 20:12 22.22635 -156.46600 36150 ft 477 kts 232°
2026-04-24 20:13 22.18387 -156.52125 36141 ft 478 kts 232°
2026-04-24 20:13 22.14165 -156.57606 36129 ft 476 kts 232°
2026-04-24 20:14 22.09938 -156.63086 36136 ft 474 kts 232°
2026-04-24 20:14 22.05725 -156.68546 36141 ft 472 kts 232°
2026-04-24 20:15 22.01521 -156.73987 36141 ft 472 kts 232°
2026-04-24 20:15 21.99425 -156.76699 35978 ft 470 kts 232°
2026-04-24 20:15 21.97352 -156.79378 35244 ft 471 kts 232°
2026-04-24 20:15 21.95243 -156.82104 34408 ft 475 kts 232°
2026-04-24 20:16 21.93112 -156.84860 33373 ft 482 kts 231°
2026-04-24 20:16 21.90947 -156.87659 32296 ft 489 kts 231°
2026-04-24 20:16 21.88748 -156.90501 31183 ft 497 kts 230°
2026-04-24 20:16 21.86516 -156.93380 30097 ft 504 kts 229°
2026-04-24 20:17 21.84295 -156.96238 29133 ft 503 kts 229°
2026-04-24 20:17 21.79819 -157.01995 27368 ft 498 kts 230°
2026-04-24 20:17 21.77598 -157.04850 26518 ft 496 kts 230°
2026-04-24 20:18 21.76136 -157.06730 25958 ft 494 kts 230°
2026-04-24 20:18 21.73200 -157.10509 24863 ft 489 kts 232°
2026-04-24 20:18 21.71029 -157.13304 24179 ft 483 kts 231°
2026-04-24 20:18 21.68892 -157.16054 23502 ft 474 kts 231°
2026-04-24 20:19 21.66792 -157.18755 22820 ft 468 kts 232°
2026-04-24 20:19 21.64720 -157.21421 22213 ft 461 kts 232°
2026-04-24 20:19 21.62704 -157.24013 21722 ft 453 kts 232°
2026-04-24 20:19 21.60701 -157.26584 21357 ft 443 kts 232°
2026-04-24 20:20 21.58725 -157.29114 20839 ft 439 kts 231°
2026-04-24 20:20 21.56777 -157.31608 20393 ft 433 kts 232°
2026-04-24 20:20 21.54847 -157.34085 19840 ft 431 kts 231°
2026-04-24 20:20 21.52934 -157.36546 19292 ft 429 kts 231°
2026-04-24 20:21 21.51023 -157.39001 18799 ft 426 kts 231°
2026-04-24 20:21 21.49130 -157.41427 18311 ft 422 kts 232°
2026-04-24 20:21 21.47274 -157.43803 17808 ft 418 kts 231°
2026-04-24 20:21 21.45414 -157.46184 17322 ft 414 kts 232°
2026-04-24 20:22 21.43571 -157.48542 16808 ft 411 kts 232°
2026-04-24 20:22 21.41732 -157.50892 16307 ft 409 kts 232°
2026-04-24 20:22 21.39911 -157.53219 15826 ft 406 kts 232°
2026-04-24 20:22 21.38096 -157.55534 15344 ft 404 kts 232°
2026-04-24 20:23 21.36292 -157.57835 14920 ft 401 kts 233°
2026-04-24 20:23 21.34511 -157.60104 14698 ft 392 kts 232°
2026-04-24 20:23 21.32777 -157.62310 14633 ft 381 kts 232°
2026-04-24 20:23 21.31115 -157.64429 14564 ft 370 kts 233°
2026-04-24 20:24 21.29473 -157.66517 14492 ft 361 kts 232°
2026-04-24 20:24 21.27874 -157.68548 14432 ft 350 kts 234°
2026-04-24 20:24 21.26635 -157.70682 14310 ft 330 kts 253°
2026-04-24 20:24 21.26190 -157.73032 14229 ft 316 kts 267°
2026-04-24 20:25 21.25991 -157.75354 14132 ft 309 kts 267°
2026-04-24 20:25 21.25793 -157.77643 13964 ft 307 kts 268°
2026-04-24 20:25 21.25594 -157.79911 13766 ft 304 kts 268°
2026-04-24 20:25 21.25394 -157.82168 13488 ft 304 kts 268°
2026-04-24 20:26 21.25192 -157.84430 13233 ft 305 kts 267°
2026-04-24 20:26 21.24987 -157.86693 12964 ft 305 kts 268°
2026-04-24 20:26 21.24783 -157.88920 12785 ft 303 kts 267°
2026-04-24 20:26 21.24574 -157.91190 12617 ft 300 kts 267°
2026-04-24 20:27 21.24372 -157.93358 12584 ft 293 kts 268°
2026-04-24 20:27 21.24169 -157.95506 12528 ft 287 kts 267°
2026-04-24 20:27 21.23968 -157.97614 12476 ft 281 kts 267°
2026-04-24 20:27 21.23777 -157.99677 12435 ft 275 kts 268°
2026-04-24 20:28 21.23719 -158.01695 12392 ft 267 kts 274°
2026-04-24 20:28 21.23735 -158.03670 12324 ft 263 kts 273°
2026-04-24 20:28 21.23757 -158.05617 12270 ft 258 kts 274°
2026-04-24 20:28 21.23773 -158.07515 12217 ft 251 kts 274°
2026-04-24 20:29 21.23780 -158.08732 12027 ft 244 kts 274°
2026-04-24 20:29 21.23791 -158.11157 11329 ft 245 kts 272°
2026-04-24 20:29 21.23794 -158.12997 10763 ft 247 kts 274°
2026-04-24 20:29 21.23795 -158.14832 10299 ft 246 kts 273°
2026-04-24 20:30 21.23794 -158.16672 9745 ft 247 kts 272°
2026-04-24 20:30 21.23753 -158.18507 9264 ft 245 kts 270°
2026-04-24 20:30 21.23707 -158.20337 8708 ft 246 kts 270°
2026-04-24 20:30 21.23655 -158.22184 8096 ft 248 kts 270°
2026-04-24 20:31 21.23611 -158.23998 7506 ft 245 kts 271°
2026-04-24 20:31 21.23576 -158.25820 6908 ft 243 kts 270°
2026-04-24 20:31 21.23559 -158.27632 6293 ft 241 kts 276°
2026-04-24 20:31 21.24064 -158.29306 5628 ft 235 kts 308°
2026-04-24 20:32 21.25273 -158.30407 5030 ft 226 kts 341°
2026-04-24 20:32 21.26767 -158.30727 4454 ft 221 kts 359°
2026-04-24 20:32 21.28299 -158.30838 4210 ft 221 kts 359°
2026-04-24 20:32 21.29852 -158.30944 4030 ft 222 kts
2026-04-24 20:33 21.31256 -158.30500 4008 ft 208 kts 38°
2026-04-24 20:33 21.32104 -158.29275 3992 ft 209 kts 73°
2026-04-24 20:33 21.32352 -158.27728 4015 ft 214 kts 82°
2026-04-24 20:33 21.32492 -158.26131 4000 ft 215 kts 85°
2026-04-24 20:34 21.32548 -158.24536 3994 ft 213 kts 87°
2026-04-24 20:34 21.32564 -158.22955 4001 ft 211 kts 88°
2026-04-24 20:34 21.32566 -158.21385 4004 ft 210 kts 88°
2026-04-24 20:34 21.32564 -158.19831 4039 ft 209 kts 88°
2026-04-24 20:35 21.32562 -158.18261 4005 ft 212 kts 86°
2026-04-24 20:35 21.32561 -158.16699 3987 ft 212 kts 86°
2026-04-24 20:35 21.32561 -158.15087 3709 ft 217 kts 87°
2026-04-24 20:35 21.32557 -158.13472 3436 ft 215 kts 87°
2026-04-24 20:36 21.32554 -158.11879 3156 ft 212 kts 87°
2026-04-24 20:36 21.32555 -158.10307 2884 ft 208 kts 87°
2026-04-24 20:36 21.32550 -158.08757 2614 ft 206 kts 87°
2026-04-24 20:36 21.32547 -158.07251 2333 ft 196 kts 87°
2026-04-24 20:37 21.32544 -158.05855 2119 ft 178 kts 85°
2026-04-24 20:37 21.32545 -158.04593 1893 ft 161 kts 86°
2026-04-24 20:37 21.32542 -158.03450 1677 ft 147 kts 85°
2026-04-24 20:37 21.32540 -158.02409 1488 ft 136 kts 83°
2026-04-24 20:38 21.32542 -158.01390 1321 ft 142 kts 85°
2026-04-24 20:38 21.32541 -158.00320 1126 ft 146 kts 87°
2026-04-24 20:38 21.32536 -157.99294 932 ft 134 kts 87°
2026-04-24 20:38 21.32536 -157.98263 750 ft 140 kts 86°
2026-04-24 20:39 21.32535 -157.97234 575 ft 141 kts 84°
2026-04-24 20:39 21.32525 -157.96139 401 ft 155 kts 87°
2026-04-24 20:39 21.32530 -157.95021 203 ft 142 kts 88°
2026-04-24 20:39 21.32526 -157.93993 48 ft 135 kts 87°
2026-04-24 20:40 21.32535 -157.93077 20 ft 110 kts 91°
2026-04-24 20:40 21.32532 -157.92471 28 ft 44 kts 91°
2026-04-24 20:40 21.32529 -157.92179 29 ft 35 kts 91°
2026-04-24 20:40 21.32543 -157.91993 29 ft 20 kts 62°
2026-04-24 20:41 21.32650 -157.91917 28 ft 14 kts 22°
2026-04-24 20:41 21.32744 -157.91874 24 ft 15 kts 36°
2026-04-24 20:41 21.32772 -157.91773 23 ft 14 kts 90°
2026-04-24 20:41 21.32774 -157.91669 24 ft 14 kts 88°
2026-04-24 20:42 21.32774 -157.91583 23 ft 8 kts 90°
2026-04-24 20:42 21.32781 -157.91520 27 ft 9 kts 57°
2026-04-24 20:42 21.32833 -157.91504 25 ft 6 kts
2026-04-24 20:42 21.32840 -157.91504 24 ft 0 kts
2026-04-24 20:43 21.32844 -157.91504 25 ft 3 kts
2026-04-24 20:43 21.32864 -157.91504 25 ft 3 kts 360°
2026-04-24 20:44 21.32872 -157.91504 25 ft 0 kts